Location: Arclight Observatory
(36.5667°N, 87.3333°W)
Time: 01:51:23
(UTC-06:00)

Hubble Space Telescope - Visible Passes

Search period start: 30 January 2015 00:00
Search period end: 09 February 2015 00:00
Orbit: 544 x 548 km, 28.5° (Epoch: 30 January)

Date Brightness Start Highest point End Pass type
(mag) Time Alt. Az. Time Alt. Az. Time Alt. Az.
30 Jan 2.3 18:42:32 10° SW 18:45:57 24° S 18:47:07 21° SSE visible
31 Jan 2.4 18:34:23 10° SW 18:37:52 26° S 18:39:40 19° SE visible
01 Feb 2.4 18:26:16 10° WSW 18:29:48 27° S 18:32:13 16° SE visible
01 Feb 3.9 20:07:30 10° WSW 20:07:43 11° WSW 20:07:43 11° WSW visible
02 Feb 2.4 18:18:11 10° WSW 18:21:44 27° S 18:24:47 12° SE visible
02 Feb 3.7 19:59:38 10° WSW 20:00:17 13° SW 20:00:17 13° SW visible
03 Feb 2.5 18:10:09 10° WSW 18:13:39 26° S 18:17:09 10° SE visible
03 Feb 3.5 19:51:52 10° SW 19:52:54 13° SW 19:52:54 13° SW visible
04 Feb 2.6 18:02:07 10° WSW 18:05:33 25° S 18:08:58 10° SE visible
04 Feb 3.5 19:44:16 10° SW 19:45:35 13° SSW 19:45:35 13° SSW visible
05 Feb 2.8 17:54:07 10° WSW 17:57:27 23° S 18:00:44 10° SE visible
05 Feb 3.6 19:37:08 10° SW 19:38:12 11° SSW 19:38:19 11° SSW visible
06 Feb 3.0 17:46:12 10° WSW 17:49:19 20° SSW 17:52:26 10° SE visible
